Year,Month,Day,Hour,Minute,Value (Times are PST for temperature in C)
2018,04,19,00,00,4.50
2018,04,19,00,01,4.50
2018,04,19,00,02,4.60
2018,04,19,00,03,4.60
2018,04,19,00,04,4.60
2018,04,19,00,05,4.60
2018,04,19,00,06,4.60
2018,04,19,00,07,4.60
2018,04,19,00,08,4.60
2018,04,19,00,09,4.60
2018,04,19,00,10,4.70
2018,04,19,00,11,4.70
2018,04,19,00,12,4.70
2018,04,19,00,13,4.70
2018,04,19,00,14,4.70
2018,04,19,00,15,4.70
2018,04,19,00,16,4.70
2018,04,19,00,17,4.70
2018,04,19,00,18,4.70
2018,04,19,00,19,4.70
2018,04,19,00,20,4.70
2018,04,19,00,21,4.60
2018,04,19,00,22,4.60
2018,04,19,00,23,4.60
2018,04,19,00,24,4.60
2018,04,19,00,25,4.60
2018,04,19,00,26,4.60
2018,04,19,00,27,4.60
2018,04,19,00,28,4.60
2018,04,19,00,29,4.60
2018,04,19,00,30,4.50
2018,04,19,00,31,4.50
2018,04,19,00,32,4.40
2018,04,19,00,33,4.40
2018,04,19,00,34,4.40
2018,04,19,00,35,4.30
2018,04,19,00,36,4.30
2018,04,19,00,37,4.30
2018,04,19,00,38,4.30
2018,04,19,00,39,4.30
2018,04,19,00,40,4.30
2018,04,19,00,41,4.20
2018,04,19,00,42,4.20
2018,04,19,00,43,4.20
2018,04,19,00,44,4.20
2018,04,19,00,45,4.10
2018,04,19,00,46,4.10
2018,04,19,00,47,4.00
2018,04,19,00,48,4.00
2018,04,19,00,49,4.00
2018,04,19,00,50,3.90
2018,04,19,00,51,3.90
2018,04,19,00,52,3.90
2018,04,19,00,53,3.90
2018,04,19,00,54,3.90
2018,04,19,00,55,3.90
2018,04,19,00,56,3.90
2018,04,19,00,57,3.90
2018,04,19,00,58,3.90
2018,04,19,00,59,3.90
2018,04,19,01,00,3.90
2018,04,19,01,01,3.90
2018,04,19,01,02,3.90
2018,04,19,01,03,3.90
2018,04,19,01,04,3.90
2018,04,19,01,05,3.90
2018,04,19,01,06,3.90
2018,04,19,01,07,3.90
2018,04,19,01,08,3.90
2018,04,19,01,09,3.90
2018,04,19,01,10,3.90
2018,04,19,01,11,3.90
2018,04,19,01,12,3.90
2018,04,19,01,13,3.90
2018,04,19,01,14,3.90
2018,04,19,01,15,3.90
2018,04,19,01,16,3.90
2018,04,19,01,17,3.90
2018,04,19,01,18,3.90
2018,04,19,01,19,3.90
2018,04,19,01,20,3.90
2018,04,19,01,21,3.90
2018,04,19,01,22,3.90
2018,04,19,01,23,3.90
2018,04,19,01,24,3.90
2018,04,19,01,25,3.90
2018,04,19,01,26,3.90
2018,04,19,01,27,3.90
2018,04,19,01,28,3.90
2018,04,19,01,29,3.90
2018,04,19,01,30,3.90
2018,04,19,01,31,3.90
2018,04,19,01,32,3.90
2018,04,19,01,33,3.90
2018,04,19,01,34,3.90
2018,04,19,01,35,3.90
2018,04,19,01,36,4.00
2018,04,19,01,37,4.00
2018,04,19,01,38,4.00
2018,04,19,01,39,4.00
2018,04,19,01,40,4.00
2018,04,19,01,41,4.00
2018,04,19,01,42,4.00
2018,04,19,01,43,4.00
2018,04,19,01,44,3.90
2018,04,19,01,45,3.90
2018,04,19,01,46,3.90
2018,04,19,01,47,3.90
2018,04,19,01,48,3.90
2018,04,19,01,49,3.90
2018,04,19,01,50,3.90
2018,04,19,01,51,3.90
2018,04,19,01,52,3.90
2018,04,19,01,53,3.90
2018,04,19,01,54,3.90
2018,04,19,01,55,3.90
2018,04,19,01,56,4.00
2018,04,19,01,57,4.00
2018,04,19,01,58,4.00
2018,04,19,01,59,4.00
2018,04,19,02,00,4.00
2018,04,19,02,01,4.00
2018,04,19,02,02,4.00
2018,04,19,02,03,4.00
2018,04,19,02,04,4.00
2018,04,19,02,05,3.90
2018,04,19,02,06,3.90
2018,04,19,02,07,3.90
2018,04,19,02,08,3.90
2018,04,19,02,09,3.90
2018,04,19,02,10,3.90
2018,04,19,02,11,3.90
2018,04,19,02,12,3.90
2018,04,19,02,13,3.90
2018,04,19,02,14,3.90
2018,04,19,02,15,3.90
2018,04,19,02,16,3.90
2018,04,19,02,17,3.90
2018,04,19,02,18,3.90
2018,04,19,02,19,3.90
2018,04,19,02,20,3.90
2018,04,19,02,21,3.90
2018,04,19,02,22,3.90
2018,04,19,02,23,3.90
2018,04,19,02,24,3.90
2018,04,19,02,25,3.90
2018,04,19,02,26,3.90
2018,04,19,02,27,4.00
2018,04,19,02,28,4.00
2018,04,19,02,29,4.00
2018,04,19,02,30,4.00
2018,04,19,02,31,4.00
2018,04,19,02,32,4.00
2018,04,19,02,33,4.10
2018,04,19,02,34,4.10
2018,04,19,02,35,4.10
2018,04,19,02,36,4.10
2018,04,19,02,37,4.10
2018,04,19,02,38,4.10
2018,04,19,02,39,4.10
2018,04,19,02,40,4.10
2018,04,19,02,41,4.10
2018,04,19,02,42,4.10
2018,04,19,02,43,4.10
2018,04,19,02,44,4.10
2018,04,19,02,45,4.10
2018,04,19,02,46,4.10
2018,04,19,02,47,4.10
2018,04,19,02,48,4.20
2018,04,19,02,49,4.20
2018,04,19,02,50,4.20
2018,04,19,02,51,4.20
2018,04,19,02,52,4.20
2018,04,19,02,53,4.20
2018,04,19,02,54,4.20
2018,04,19,02,55,4.20
2018,04,19,02,56,4.20
2018,04,19,02,57,4.20
2018,04,19,02,58,4.20
2018,04,19,02,59,4.20
2018,04,19,03,00,4.20
2018,04,19,03,01,4.20
2018,04,19,03,02,4.20
2018,04,19,03,03,4.20
2018,04,19,03,04,4.20
2018,04,19,03,05,4.20
2018,04,19,03,06,4.20
2018,04,19,03,07,4.20
2018,04,19,03,08,4.20
2018,04,19,03,09,4.20
2018,04,19,03,10,4.20
2018,04,19,03,11,4.20
2018,04,19,03,12,4.20
2018,04,19,03,13,4.20
2018,04,19,03,14,4.20
2018,04,19,03,15,4.20
2018,04,19,03,16,4.20
2018,04,19,03,17,4.20
2018,04,19,03,18,4.20
2018,04,19,03,19,4.20
2018,04,19,03,20,4.10
2018,04,19,03,21,4.10
2018,04,19,03,22,4.10
2018,04,19,03,23,4.10
2018,04,19,03,24,4.00
2018,04,19,03,25,4.00
2018,04,19,03,26,4.00
2018,04,19,03,27,3.90
2018,04,19,03,28,3.90
2018,04,19,03,29,3.90
2018,04,19,03,30,3.90
2018,04,19,03,31,3.90
2018,04,19,03,32,3.90
2018,04,19,03,33,3.90
2018,04,19,03,34,3.80
2018,04,19,03,35,3.80
2018,04,19,03,36,3.80
2018,04,19,03,37,3.80
2018,04,19,03,38,3.80
2018,04,19,03,39,3.80
2018,04,19,03,40,3.80
2018,04,19,03,41,3.80
2018,04,19,03,42,3.70
2018,04,19,03,43,3.70
2018,04,19,03,44,3.70
2018,04,19,03,45,3.70
2018,04,19,03,46,3.70
2018,04,19,03,47,3.70
2018,04,19,03,48,3.70
2018,04,19,03,49,3.70
2018,04,19,03,50,3.70
2018,04,19,03,51,3.70
2018,04,19,03,52,3.70
2018,04,19,03,53,3.60
2018,04,19,03,54,3.60
2018,04,19,03,55,3.60
2018,04,19,03,56,3.60
2018,04,19,03,57,3.60
2018,04,19,03,58,3.60
2018,04,19,03,59,3.50
2018,04,19,04,00,3.50
2018,04,19,04,01,3.50
2018,04,19,04,02,3.40
2018,04,19,04,03,3.40
2018,04,19,04,04,3.40
2018,04,19,04,05,3.40
2018,04,19,04,06,3.40
2018,04,19,04,07,3.30
2018,04,19,04,08,3.30
2018,04,19,04,09,3.30
2018,04,19,04,10,3.30
2018,04,19,04,11,3.30
2018,04,19,04,12,3.30
2018,04,19,04,13,3.30
2018,04,19,04,14,3.30
2018,04,19,04,15,3.20
2018,04,19,04,16,3.20
2018,04,19,04,17,3.20
2018,04,19,04,18,3.20
2018,04,19,04,19,3.20
2018,04,19,04,20,3.20
2018,04,19,04,21,3.20
2018,04,19,04,22,3.20
2018,04,19,04,23,3.20
2018,04,19,04,24,3.20
2018,04,19,04,25,3.30
2018,04,19,04,26,3.30
2018,04,19,04,27,3.30
2018,04,19,04,28,3.20
2018,04,19,04,29,3.20
2018,04,19,04,30,3.20
2018,04,19,04,31,3.20
2018,04,19,04,32,3.20
2018,04,19,04,33,3.20
2018,04,19,04,34,3.20
2018,04,19,04,35,3.20
2018,04,19,04,36,3.20
2018,04,19,04,37,3.20
2018,04,19,04,38,3.30
2018,04,19,04,39,3.20
2018,04,19,04,40,3.20
2018,04,19,04,41,3.20
2018,04,19,04,42,3.20
2018,04,19,04,43,3.20
2018,04,19,04,44,3.20
2018,04,19,04,45,3.20
2018,04,19,04,46,3.20
2018,04,19,04,47,3.20
2018,04,19,04,48,3.20
2018,04,19,04,49,3.20
2018,04,19,04,50,3.20
2018,04,19,04,51,3.20
2018,04,19,04,52,3.20
2018,04,19,04,53,3.20
2018,04,19,04,54,3.20
2018,04,19,04,55,3.20
2018,04,19,04,56,3.20
2018,04,19,04,57,3.20
2018,04,19,04,58,3.20
2018,04,19,04,59,3.30
2018,04,19,05,00,3.30
2018,04,19,05,01,3.30
2018,04,19,05,02,3.30
2018,04,19,05,03,3.30
2018,04,19,05,04,3.30
2018,04,19,05,05,3.30
2018,04,19,05,06,3.30
2018,04,19,05,07,3.40
2018,04,19,05,08,3.40
2018,04,19,05,09,3.40
2018,04,19,05,10,3.40
2018,04,19,05,11,3.40
2018,04,19,05,12,3.40
2018,04,19,05,13,3.40
2018,04,19,05,14,3.40
2018,04,19,05,15,3.40
2018,04,19,05,16,3.40
2018,04,19,05,17,3.40
2018,04,19,05,18,3.40
2018,04,19,05,19,3.40
2018,04,19,05,20,3.40
2018,04,19,05,21,3.40
2018,04,19,05,22,3.40
2018,04,19,05,23,3.40
2018,04,19,05,24,3.40
2018,04,19,05,25,3.40
2018,04,19,05,26,3.40
2018,04,19,05,27,3.40
2018,04,19,05,28,3.40
2018,04,19,05,29,3.40
2018,04,19,05,30,3.40
2018,04,19,05,31,3.40
2018,04,19,05,32,3.40
2018,04,19,05,33,3.40
2018,04,19,05,34,3.40
2018,04,19,05,35,3.40
2018,04,19,05,36,3.40
2018,04,19,05,37,3.40
2018,04,19,05,38,3.40
2018,04,19,05,39,3.40
2018,04,19,05,40,3.40
2018,04,19,05,41,3.40
2018,04,19,05,42,3.40
2018,04,19,05,43,3.40
2018,04,19,05,44,3.40
2018,04,19,05,45,3.40
2018,04,19,05,46,3.40
2018,04,19,05,47,3.40
2018,04,19,05,48,3.40
2018,04,19,05,49,3.40
2018,04,19,05,50,3.40
2018,04,19,05,51,3.40
2018,04,19,05,52,3.40
2018,04,19,05,53,3.30
2018,04,19,05,54,3.30
2018,04,19,05,55,3.30
2018,04,19,05,56,3.30
2018,04,19,05,57,3.30
2018,04,19,05,58,3.30
2018,04,19,05,59,3.30
2018,04,19,06,00,3.20
2018,04,19,06,01,3.20
2018,04,19,06,02,3.20
2018,04,19,06,03,3.20
2018,04,19,06,04,3.20
2018,04,19,06,05,3.20
2018,04,19,06,06,3.20
2018,04,19,06,07,3.20
2018,04,19,06,08,3.20
2018,04,19,06,09,3.10
2018,04,19,06,10,3.10
2018,04,19,06,11,3.10
2018,04,19,06,12,3.00
2018,04,19,06,13,3.00
2018,04,19,06,14,2.90
2018,04,19,06,15,2.90
2018,04,19,06,16,2.90
2018,04,19,06,17,2.90
2018,04,19,06,18,2.90
2018,04,19,06,19,2.80
2018,04,19,06,20,2.80
2018,04,19,06,21,2.80
2018,04,19,06,22,2.80
2018,04,19,06,23,2.80
2018,04,19,06,24,2.80
2018,04,19,06,25,2.80
2018,04,19,06,26,2.80
2018,04,19,06,27,2.80
2018,04,19,06,28,2.80
2018,04,19,06,29,2.80
2018,04,19,06,30,2.80
2018,04,19,06,31,2.80
2018,04,19,06,32,2.80
2018,04,19,06,33,2.80
2018,04,19,06,34,2.80
2018,04,19,06,35,2.80
2018,04,19,06,36,2.80
2018,04,19,06,37,2.80
2018,04,19,06,38,2.80
2018,04,19,06,39,2.80
2018,04,19,06,40,2.80
2018,04,19,06,41,2.80
2018,04,19,06,42,2.80
2018,04,19,06,43,2.80
2018,04,19,06,44,2.80
2018,04,19,06,45,2.80
2018,04,19,06,46,2.90
2018,04,19,06,47,2.80
2018,04,19,06,48,2.90
2018,04,19,06,49,2.90
2018,04,19,06,50,2.90
2018,04,19,06,51,2.90
2018,04,19,06,52,2.90
2018,04,19,06,53,2.90
2018,04,19,06,54,2.90
2018,04,19,06,55,2.90
2018,04,19,06,56,2.90
2018,04,19,06,57,3.00
2018,04,19,06,58,3.00
2018,04,19,06,59,3.00
2018,04,19,07,00,3.00
2018,04,19,07,01,3.10
2018,04,19,07,02,3.10
2018,04,19,07,03,3.10
2018,04,19,07,04,3.10
2018,04,19,07,05,3.10
2018,04,19,07,06,3.10
2018,04,19,07,07,3.20
2018,04,19,07,08,3.20
2018,04,19,07,09,3.20
2018,04,19,07,10,3.30
2018,04,19,07,11,3.30
2018,04,19,07,12,3.30
2018,04,19,07,13,3.40
2018,04,19,07,14,3.40
2018,04,19,07,15,3.40
2018,04,19,07,16,3.40
2018,04,19,07,17,3.50
2018,04,19,07,18,3.50
2018,04,19,07,19,3.50
2018,04,19,07,20,3.50
2018,04,19,07,21,3.60
2018,04,19,07,22,3.60
2018,04,19,07,23,3.60
2018,04,19,07,24,3.60
2018,04,19,07,25,3.60
2018,04,19,07,26,3.60
2018,04,19,07,27,3.60
2018,04,19,07,28,3.60
2018,04,19,07,29,3.60
2018,04,19,07,30,3.60
2018,04,19,07,31,3.60
2018,04,19,07,32,3.60
2018,04,19,07,33,3.60
2018,04,19,07,34,3.50
2018,04,19,07,35,3.60
2018,04,19,07,36,3.50
2018,04,19,07,37,3.60
2018,04,19,07,38,3.60
2018,04,19,07,39,3.60
2018,04,19,07,40,3.60
2018,04,19,07,41,3.60
2018,04,19,07,42,3.60
2018,04,19,07,43,3.70
2018,04,19,07,44,3.70
2018,04,19,07,45,3.70
2018,04,19,07,46,3.70
2018,04,19,07,47,3.80
2018,04,19,07,48,3.80
2018,04,19,07,49,3.80
2018,04,19,07,50,3.80
2018,04,19,07,51,3.90
2018,04,19,07,52,3.90
2018,04,19,07,53,3.90
2018,04,19,07,54,4.00
2018,04,19,07,55,4.00
2018,04,19,07,56,4.00
2018,04,19,07,57,4.00
2018,04,19,07,59,4.00
2018,04,19,08,00,4.00
2018,04,19,08,01,4.00
2018,04,19,08,02,4.00
2018,04,19,08,03,4.00
2018,04,19,08,04,4.00
2018,04,19,08,05,4.00
2018,04,19,08,06,4.00
2018,04,19,08,07,3.90
2018,04,19,08,08,3.90
2018,04,19,08,09,3.90
2018,04,19,08,10,3.90
2018,04,19,08,11,3.90
2018,04,19,08,12,3.90
2018,04,19,08,13,3.90
2018,04,19,08,14,3.90
2018,04,19,08,15,3.90
2018,04,19,08,16,3.90
2018,04,19,08,17,3.90
2018,04,19,08,18,3.90
2018,04,19,08,19,3.90
2018,04,19,08,20,3.90
2018,04,19,08,21,3.90
2018,04,19,08,22,4.00
2018,04,19,08,23,4.00
2018,04,19,08,24,4.10
2018,04,19,08,25,4.10
2018,04,19,08,26,4.10
2018,04,19,08,27,4.20
2018,04,19,08,28,4.20
2018,04,19,08,29,4.20
2018,04,19,08,30,4.20
2018,04,19,08,31,4.20
2018,04,19,08,32,4.20
2018,04,19,08,33,4.20
2018,04,19,08,34,4.20
2018,04,19,08,35,4.20
2018,04,19,08,36,4.20
2018,04,19,08,37,4.20
2018,04,19,08,38,4.20
2018,04,19,08,39,4.20
2018,04,19,08,40,4.30
2018,04,19,08,41,4.30
2018,04,19,08,42,4.30
2018,04,19,08,43,4.30
2018,04,19,08,44,4.30
2018,04,19,08,45,4.30
2018,04,19,08,46,4.30
2018,04,19,08,47,4.40
2018,04,19,08,48,4.40
2018,04,19,08,49,4.40
2018,04,19,08,50,4.40
2018,04,19,08,51,4.40
2018,04,19,08,52,4.50
2018,04,19,08,53,4.50
2018,04,19,08,54,4.50
2018,04,19,08,55,4.60
2018,04,19,08,56,4.60
2018,04,19,08,57,4.60
2018,04,19,08,58,4.60
2018,04,19,08,59,4.60
2018,04,19,09,00,4.60
2018,04,19,09,01,4.70
2018,04,19,09,02,4.70
2018,04,19,09,03,4.70
2018,04,19,09,04,4.70
2018,04,19,09,05,4.70
2018,04,19,09,06,4.80
2018,04,19,09,07,4.80
2018,04,19,09,08,4.80
2018,04,19,09,09,4.80
2018,04,19,09,10,4.80
2018,04,19,09,11,4.90
2018,04,19,09,12,4.90
2018,04,19,09,13,4.90
2018,04,19,09,14,4.90
2018,04,19,09,15,5.00
2018,04,19,09,16,5.00
2018,04,19,09,17,5.10
2018,04,19,09,18,5.10
2018,04,19,09,19,5.10
2018,04,19,09,20,5.10
2018,04,19,09,21,5.10
2018,04,19,09,22,5.10
2018,04,19,09,23,5.10
2018,04,19,09,24,5.10
2018,04,19,09,25,5.10
2018,04,19,09,26,5.10
2018,04,19,09,27,5.10
2018,04,19,09,28,5.10
2018,04,19,09,29,5.10
2018,04,19,09,30,5.10
2018,04,19,09,31,5.10
2018,04,19,09,32,5.10
2018,04,19,09,33,5.10
2018,04,19,09,34,5.10
2018,04,19,09,35,5.10
2018,04,19,09,36,5.10
2018,04,19,09,37,5.10
2018,04,19,09,38,5.10
2018,04,19,09,39,5.20
2018,04,19,09,40,5.20
2018,04,19,09,41,5.20
2018,04,19,09,42,5.20
2018,04,19,09,43,5.30
2018,04,19,09,44,5.30
2018,04,19,09,45,5.30
2018,04,19,09,46,5.40
2018,04,19,09,47,5.50
2018,04,19,09,48,5.50
2018,04,19,09,49,5.60
2018,04,19,09,50,5.60
2018,04,19,09,51,5.70
2018,04,19,09,52,5.70
2018,04,19,09,53,5.70
2018,04,19,09,54,5.70
2018,04,19,09,55,5.80
2018,04,19,09,56,5.80
2018,04,19,09,57,5.80
2018,04,19,09,58,5.80
2018,04,19,09,59,5.90
2018,04,19,10,00,5.90
2018,04,19,10,01,6.00
2018,04,19,10,02,6.00
2018,04,19,10,03,6.00
2018,04,19,10,04,6.10
2018,04,19,10,05,6.10
2018,04,19,10,06,6.10
2018,04,19,10,07,6.10
2018,04,19,10,08,6.10
2018,04,19,10,09,6.10
2018,04,19,10,10,6.10
2018,04,19,10,11,6.20
2018,04,19,10,12,6.20
2018,04,19,10,13,6.20
2018,04,19,10,14,6.30
2018,04,19,10,15,6.30
2018,04,19,10,16,6.30
2018,04,19,10,17,6.30
2018,04,19,10,18,6.40
2018,04,19,10,19,6.40
2018,04,19,10,20,6.50
2018,04,19,10,21,6.50
2018,04,19,10,22,6.60
2018,04,19,10,23,6.70
2018,04,19,10,24,6.70
2018,04,19,10,25,6.70
2018,04,19,10,26,6.70
2018,04,19,10,27,6.70
2018,04,19,10,28,6.80
2018,04,19,10,29,6.80
2018,04,19,10,30,6.90
2018,04,19,10,31,6.90
2018,04,19,10,32,7.00
2018,04,19,10,33,7.00
2018,04,19,10,34,7.10
2018,04,19,10,35,7.10
2018,04,19,10,36,7.10
2018,04,19,10,37,7.10
2018,04,19,10,38,7.10
2018,04,19,10,39,7.10
2018,04,19,10,40,7.10
2018,04,19,10,41,7.10
2018,04,19,10,42,7.10
2018,04,19,10,43,7.10
2018,04,19,10,44,7.20
2018,04,19,10,45,7.20
2018,04,19,10,46,7.30
2018,04,19,10,47,7.30
2018,04,19,10,48,7.30
2018,04,19,10,49,7.40
2018,04,19,10,50,7.40
2018,04,19,10,51,7.50
2018,04,19,10,52,7.60
2018,04,19,10,53,7.70
2018,04,19,10,54,7.70
2018,04,19,10,55,7.70
2018,04,19,10,56,7.70
2018,04,19,10,57,7.70
2018,04,19,10,58,7.70
2018,04,19,10,59,7.80
2018,04,19,11,00,7.80
2018,04,19,11,01,7.80
2018,04,19,11,02,7.80
2018,04,19,11,03,7.90
2018,04,19,11,04,7.90
2018,04,19,11,05,7.90
2018,04,19,11,06,7.90
2018,04,19,11,07,7.90
2018,04,19,11,08,7.90
2018,04,19,11,09,7.90
2018,04,19,11,10,8.00
2018,04,19,11,11,8.00
2018,04,19,11,12,8.00
2018,04,19,11,13,8.10
2018,04,19,11,14,8.10
2018,04,19,11,15,8.20
2018,04,19,11,16,8.20
2018,04,19,11,17,8.30
2018,04,19,11,18,8.30
2018,04,19,11,19,8.30
2018,04,19,11,20,8.40
2018,04,19,11,21,8.40
2018,04,19,11,22,8.60
2018,04,19,11,23,8.80
2018,04,19,11,24,8.90
2018,04,19,11,25,9.00
2018,04,19,11,26,9.10
2018,04,19,11,27,9.20
2018,04,19,11,28,9.30
2018,04,19,11,29,9.40
2018,04,19,11,30,9.50
2018,04,19,11,31,9.70
2018,04,19,11,32,9.70
2018,04,19,11,33,9.70
2018,04,19,11,34,9.60
2018,04,19,11,35,9.60
2018,04,19,11,36,9.50
2018,04,19,11,37,9.50
2018,04,19,11,38,9.40
2018,04,19,11,39,9.40
2018,04,19,11,40,9.50
2018,04,19,11,41,9.50
2018,04,19,11,42,9.60
2018,04,19,11,43,9.70
2018,04,19,11,44,9.70
2018,04,19,11,45,9.60
2018,04,19,11,46,9.60
2018,04,19,11,47,9.60
2018,04,19,11,48,9.70
2018,04,19,11,49,9.70
2018,04,19,11,50,9.70
2018,04,19,11,51,9.80
2018,04,19,11,52,9.80
2018,04,19,11,53,9.80
2018,04,19,11,54,9.80
2018,04,19,11,55,9.90
2018,04,19,11,56,9.90
2018,04,19,11,57,9.90
2018,04,19,11,58,10.00
2018,04,19,11,59,10.00
2018,04,19,12,00,10.00
2018,04,19,12,01,10.10
2018,04,19,12,02,10.20
2018,04,19,12,03,10.30
2018,04,19,12,04,10.40
2018,04,19,12,05,10.50
2018,04,19,12,06,10.50
2018,04,19,12,07,10.60
2018,04,19,12,08,10.70
2018,04,19,12,09,10.80
2018,04,19,12,10,10.90
2018,04,19,12,11,11.00
2018,04,19,12,12,11.00
2018,04,19,12,13,11.00
2018,04,19,12,14,11.10
2018,04,19,12,15,11.10
2018,04,19,12,16,11.10
2018,04,19,12,17,11.20
2018,04,19,12,18,11.20
2018,04,19,12,19,11.20
2018,04,19,12,20,11.10
2018,04,19,12,21,11.10
2018,04,19,12,22,11.10
2018,04,19,12,23,11.10
2018,04,19,12,24,11.10
2018,04,19,12,25,11.10
2018,04,19,12,26,11.20
2018,04,19,12,27,11.20
2018,04,19,12,28,11.30
2018,04,19,12,29,11.40
2018,04,19,12,30,11.50
2018,04,19,12,31,11.60
2018,04,19,12,32,11.80
2018,04,19,12,33,11.90
2018,04,19,12,34,12.10
2018,04,19,12,35,12.20
2018,04,19,12,36,12.30
2018,04,19,12,37,12.30
2018,04,19,12,38,12.40
2018,04,19,12,39,12.50
2018,04,19,12,40,12.50
2018,04,19,12,41,12.60
2018,04,19,12,42,12.60
2018,04,19,12,43,12.70
2018,04,19,12,44,12.70
2018,04,19,12,45,12.70
2018,04,19,12,46,12.70
2018,04,19,12,47,12.60
2018,04,19,12,48,12.60
2018,04,19,12,49,12.50
2018,04,19,12,50,12.50
2018,04,19,12,51,12.50
2018,04,19,12,52,12.50
2018,04,19,12,53,12.50
2018,04,19,12,54,12.50
2018,04,19,12,55,12.50
2018,04,19,12,56,12.50
2018,04,19,12,57,12.60
2018,04,19,12,58,12.60
2018,04,19,12,59,12.70
2018,04,19,13,00,12.70
2018,04,19,13,01,12.70
2018,04,19,13,02,12.70
2018,04,19,13,03,12.70
2018,04,19,13,04,12.70
2018,04,19,13,05,12.70
2018,04,19,13,06,12.80
2018,04,19,13,07,12.70
2018,04,19,13,08,12.70
2018,04,19,13,09,12.80
2018,04,19,13,10,12.90
2018,04,19,13,11,12.90
2018,04,19,13,12,12.90
2018,04,19,13,13,12.90
2018,04,19,13,14,12.90
2018,04,19,13,15,13.00
2018,04,19,13,16,13.10
2018,04,19,13,17,13.20
2018,04,19,13,18,13.20
2018,04,19,13,19,13.10
2018,04,19,13,20,13.10
2018,04,19,13,21,13.10
2018,04,19,13,22,13.10
2018,04,19,13,23,13.10
2018,04,19,13,24,13.10
2018,04,19,13,25,13.10
2018,04,19,13,26,13.10
2018,04,19,13,27,13.10
2018,04,19,13,28,13.10
2018,04,19,13,29,13.10
2018,04,19,13,30,13.20
2018,04,19,13,31,13.30
2018,04,19,13,32,13.30
2018,04,19,13,33,13.30
2018,04,19,13,34,13.30
2018,04,19,13,35,13.40
2018,04,19,13,36,13.40
2018,04,19,13,37,13.50
2018,04,19,13,38,13.70
2018,04,19,13,39,13.80
2018,04,19,13,40,13.90
2018,04,19,13,41,14.00
2018,04,19,13,42,14.10
2018,04,19,13,43,14.10
2018,04,19,13,44,14.10
2018,04,19,13,45,14.10
2018,04,19,13,46,14.10
2018,04,19,13,47,14.10
2018,04,19,13,48,14.10
2018,04,19,13,49,14.10
2018,04,19,13,50,14.20
2018,04,19,13,51,14.20
2018,04,19,13,52,14.30
2018,04,19,13,53,14.30
2018,04,19,13,54,14.40
2018,04,19,13,55,14.30
2018,04,19,13,56,14.30
2018,04,19,13,57,14.20
2018,04,19,13,58,14.00
2018,04,19,13,59,13.80
2018,04,19,14,00,13.70
2018,04,19,14,01,13.70
2018,04,19,14,02,13.70
2018,04,19,14,03,13.70
2018,04,19,14,04,13.70
2018,04,19,14,05,13.80
2018,04,19,14,06,13.90
2018,04,19,14,07,13.90
2018,04,19,14,08,14.00
2018,04,19,14,09,14.00
2018,04,19,14,10,14.00
2018,04,19,14,11,14.00
2018,04,19,14,12,14.00
2018,04,19,14,13,14.00
2018,04,19,14,14,14.00
2018,04,19,14,15,13.90
2018,04,19,14,16,13.90
2018,04,19,14,17,14.00
2018,04,19,14,18,14.00
2018,04,19,14,19,14.00
2018,04,19,14,20,13.90
2018,04,19,14,21,13.90
2018,04,19,14,22,13.80
2018,04,19,14,23,13.80
2018,04,19,14,24,13.80
2018,04,19,14,25,13.80
2018,04,19,14,26,13.80
2018,04,19,14,27,13.70
2018,04,19,14,28,13.70
2018,04,19,14,29,13.60
2018,04,19,14,30,13.60
2018,04,19,14,31,13.50
2018,04,19,14,32,13.50
2018,04,19,14,33,13.40
2018,04,19,14,34,13.50
2018,04,19,14,35,13.50
2018,04,19,14,36,13.50
2018,04,19,14,37,13.40
2018,04,19,14,38,13.40
2018,04,19,14,39,13.50
2018,04,19,14,40,13.50
2018,04,19,14,41,13.50
2018,04,19,14,42,13.50
2018,04,19,14,43,13.50
2018,04,19,14,44,13.50
2018,04,19,14,45,13.40
2018,04,19,14,46,13.50
2018,04,19,14,47,13.50
2018,04,19,14,48,13.50
2018,04,19,14,49,13.50
2018,04,19,14,50,13.60
2018,04,19,14,51,13.50
2018,04,19,14,52,13.50
2018,04,19,14,53,13.50
2018,04,19,14,54,13.50
2018,04,19,14,55,13.60
2018,04,19,14,56,13.60
2018,04,19,14,57,13.60
2018,04,19,14,58,13.60
2018,04,19,14,59,13.60
2018,04,19,15,00,13.70
2018,04,19,15,01,13.70
2018,04,19,15,02,13.70
2018,04,19,15,03,13.70
2018,04,19,15,04,13.70
2018,04,19,15,05,13.70
2018,04,19,15,06,13.70
2018,04,19,15,07,13.70
2018,04,19,15,08,13.70
2018,04,19,15,09,13.70
2018,04,19,15,10,13.60
2018,04,19,15,11,13.60
2018,04,19,15,12,13.60
2018,04,19,15,13,13.50
2018,04,19,15,14,13.50
2018,04,19,15,15,13.50
2018,04,19,15,16,13.50
2018,04,19,15,17,13.50
2018,04,19,15,18,13.50
2018,04,19,15,19,13.50
2018,04,19,15,20,13.50
2018,04,19,15,21,13.50
2018,04,19,15,22,13.50
2018,04,19,15,23,13.50
2018,04,19,15,24,13.40
2018,04,19,15,25,13.40
2018,04,19,15,26,13.40
2018,04,19,15,27,13.40
2018,04,19,15,28,13.40
2018,04,19,15,29,13.40
2018,04,19,15,30,13.40
2018,04,19,15,31,13.30
2018,04,19,15,32,13.30
2018,04,19,15,33,13.30
2018,04,19,15,34,13.30
2018,04,19,15,35,13.20
2018,04,19,15,36,13.20
2018,04,19,15,37,13.20
2018,04,19,15,38,13.20
2018,04,19,15,39,13.20
2018,04,19,15,40,13.20
2018,04,19,15,41,13.20
2018,04,19,15,42,13.20
2018,04,19,15,43,13.20
2018,04,19,15,44,13.20
2018,04,19,15,45,13.20
2018,04,19,15,46,13.20
2018,04,19,15,47,13.20
2018,04,19,15,48,13.20
2018,04,19,15,49,13.20
2018,04,19,15,50,13.20
2018,04,19,15,51,13.20
2018,04,19,15,52,13.20
2018,04,19,15,53,13.10
2018,04,19,15,54,13.10
2018,04,19,15,55,13.10
2018,04,19,15,56,13.20
2018,04,19,15,57,13.20
2018,04,19,15,58,13.20
2018,04,19,15,59,13.20
2018,04,19,16,00,13.20
2018,04,19,16,01,13.20
2018,04,19,16,02,13.10
2018,04,19,16,03,13.10
2018,04,19,16,04,13.10
2018,04,19,16,05,13.10
2018,04,19,16,06,13.10
2018,04,19,16,07,13.10
2018,04,19,16,08,13.10
2018,04,19,16,09,13.00
2018,04,19,16,10,12.90
2018,04,19,16,11,12.90
2018,04,19,16,12,12.90
2018,04,19,16,13,12.90
2018,04,19,16,14,12.90
2018,04,19,16,15,12.90
2018,04,19,16,16,12.90
2018,04,19,16,17,12.90
2018,04,19,16,18,12.90
2018,04,19,16,19,12.90
2018,04,19,16,20,12.80
2018,04,19,16,21,12.80
2018,04,19,16,22,12.70
2018,04,19,16,23,12.70
2018,04,19,16,24,12.70
2018,04,19,16,25,12.60
2018,04,19,16,26,12.60
2018,04,19,16,27,12.60
2018,04,19,16,28,12.60
2018,04,19,16,29,12.60
2018,04,19,16,30,12.60
2018,04,19,16,31,12.60
2018,04,19,16,32,12.60
2018,04,19,16,33,12.60
2018,04,19,16,34,12.60
2018,04,19,16,35,12.50
2018,04,19,16,36,12.50
2018,04,19,16,37,12.40
2018,04,19,16,38,12.40
2018,04,19,16,39,12.40
2018,04,19,16,40,12.30
2018,04,19,16,41,12.30
2018,04,19,16,42,12.30
2018,04,19,16,43,12.30
2018,04,19,16,44,12.30
2018,04,19,16,45,12.30
2018,04,19,16,46,12.30
2018,04,19,16,47,12.20
2018,04,19,16,48,12.20
2018,04,19,16,49,12.10
2018,04,19,16,50,12.10
2018,04,19,16,51,12.10
2018,04,19,16,52,12.10
2018,04,19,16,53,12.00
2018,04,19,16,54,12.00
2018,04,19,16,55,11.90
2018,04,19,16,56,11.90
2018,04,19,16,57,11.80
2018,04,19,16,58,11.80
2018,04,19,16,59,11.70
2018,04,19,17,00,11.70
2018,04,19,17,01,11.70
2018,04,19,17,02,11.70
2018,04,19,17,03,11.60
2018,04,19,17,04,11.60
2018,04,19,17,05,11.60
2018,04,19,17,06,11.60
2018,04,19,17,07,11.50
2018,04,19,17,08,11.50
2018,04,19,17,09,11.50
2018,04,19,17,10,11.50
2018,04,19,17,11,11.50
2018,04,19,17,12,11.50
2018,04,19,17,13,11.50
2018,04,19,17,14,11.50
2018,04,19,17,15,11.40
2018,04,19,17,16,11.40
2018,04,19,17,17,11.40
2018,04,19,17,18,11.30
2018,04,19,17,19,11.30
2018,04,19,17,20,11.30
2018,04,19,17,21,11.30
2018,04,19,17,22,11.30
2018,04,19,17,23,11.30
2018,04,19,17,24,11.30
2018,04,19,17,25,11.30
2018,04,19,17,26,11.30
2018,04,19,17,27,11.30
2018,04,19,17,28,11.30
2018,04,19,17,29,11.30
2018,04,19,17,30,11.30
2018,04,19,17,31,11.20
2018,04,19,17,32,11.20
2018,04,19,17,33,11.20
2018,04,19,17,34,11.20
2018,04,19,17,35,11.20
2018,04,19,17,36,11.20
2018,04,19,17,37,11.10
2018,04,19,17,38,11.10
2018,04,19,17,39,11.00
2018,04,19,17,40,11.00
2018,04,19,17,41,10.90
2018,04,19,17,42,10.90
2018,04,19,17,43,10.90
2018,04,19,17,44,10.80
2018,04,19,17,45,10.80
2018,04,19,17,46,10.80
2018,04,19,17,47,10.80
2018,04,19,17,48,10.80
2018,04,19,17,49,10.80
2018,04,19,17,50,10.70
2018,04,19,17,51,10.70